RH
23 27 31 34 29 25 23 27 30 28 32 43 45 46 45 41 37 42 42 41 39 37 36 37 38 42 48 48 59 78 94 91 88 86 78 79 90 89 90 75 88 78 77 75
26 30 27 22 22 25 22 25 29 27 35 39 45 48 45 42 45 43 35 34 35 34 31 31 37 41 49 56 62 76 94 95 87 94 87 94 90 91 90 74 71 71 73 82
30 30 22 21 21 19 29 20 26 30 28 36 39 48 52 42 42 37 34 31 28 29 29 28 32 41 54 64 69 79 92 95 87 90 78 78 78 70 70 64 70 67 73 76
28 26 24 20 17 22 25 22 20 28 26 29 30 65 55 50 45 27 26 29 30 27 26 25 26 38 54 66 76 82 88 86 81 85 87 89 80 81 72 67 62 71 76 73
27 29 31 21 19 17 19 23 23 26 30 25 23 52 60 43 40 31 33 38 39 36 33 32 30 39 69 83 92 93 93 87 89 88 89 88 89 86 82 80 78 78 79 80
27 26 22 27 18 18 19 21 25 32 29 28 27 36 57 47 37 41 44 46 44 42 40 38 40 52 77 89 84 84 91 88 87 77 76 76 80 81 79 78 83 86 84 86
24 19 16 15 16 15 20 22 22 24 26 29 36 43 53 42 46 48 51 52 50 46 44 39 39 60 84 90 91 82 90 88 80 70 70 74 83 84 82 88 90 92 92 92
33 37 18 17 19 22 25 27 28 13 22 27 32 56 48 46 48 49 49 53 51 48 43 42 38 48 86 90 89 92 89 76 72 71 77 84 85 83 83 89 92 94 96 96
27 26 21 22 22 19 25 28 28 35 43 39 37 47 45 52 56 56 56 53 52 46 42 42 41 51 94 93 90 91 81 71 72 80 85 86 80 82 85 84 85 89 90 95
38 20 25 27 22 21 23 23 27 37 35 35 37 48 49 66 66 60 61 55 51 48 48 62 72 77 90 92 87 85 74 70 80 83 84 83 81 79 81 81 89 91 93 96
43 29 18 22 28 32 28 34 42 38 47 45 56 46 61 69 66 69 62 53 55 55 62 50 56 70 77 81 83 80 78 86 86 84 83 82 78 83 78 83 88 94 95 96
42 44 25 31 30 33 35 39 42 45 43 52 59 57 59 69 66 61 58 54 59 53 52 58 58 58 61 69 87 92 89 93 84 82 80 82 83 82 87 88 84 91 95 95
33 28 14 17 34 39 43 42 38 48 51 46 60 47 64 64 64 57 60 64 56 54 63 66 68 69 69 80 91 88 90 94 82 79 75 81 88 88 87 88 87 87 90 93
38 37 17 19 32 52 53 52 50 46 53 47 49 49 64 71 68 62 64 66 60 67 68 62 72 69 80 94 94 94 87 83 84 76 75 86 92 97 90 87 87 87 87 88
32 25 50 50 48 58 57 53 54 50 46 45 47 62 81 73 71 68 67 62 73 70 67 70 71 80 94 93 95 89 84 86 83 81 89 91 88 84 85 82 84 84 84 86
53 42 61 53 57 60 60 54 54 53 50 50 62 71 69 66 66 70 71 74 74 78 79 88 88 94 94 95 89 86 80 78 81 84 89 87 85 87 89 90 86 83 83 85
56 68 71 45 65 50 39 49 54 62 73 61 62 74 74 70 75 79 80 74 80 84 91 93 94 94 94 87 84 78 76 76 83 87 84 87 86 89 87 83 82 85 87 86
67 64 69 77 56 43 31 50 53 63 74 73 72 72 76 80 80 75 72 80 83 89 93 90 89 84 86 80 78 76 73 78 85 86 85 82 85 85 86 87 88 88 88 89
60 68 89 81 86 47 54 67 63 60 62 75 73 75 81 82 76 75 73 76 86 83 87 88 85 78 82 79 75 83 84 80 76 80 80 75 76 80 82 87 88 86 87 86
62 63 60 91 74 60 43 56 55 53 70 78 76 80 85 86 77 81 74 81 82 76 78 83 76 74 83 87 78 78 79 79 84 81 81 78 75 80 86 87 88 85 82 73
68 73 75 90 88 71 52 57 57 70 57 81 80 84 89 93 83 77 83 80 76 77 80 76 75 84 84 85 73 80 82 90 85 81 78 77 78 73 80 83 79 78 71 65
70 84 89 84 92 78 59 59 62 68 85 82 87 86 87 88 85 84 80 79 75 80 78 76 83 98 96 88 79 83 92 88 86 86 84 87 85 74 70 79 75 69 71 70
71 66 76 73 72 70 77 76 82 75 78 82 85 88 78 74 77 86 84 80 76 77 92 90 96 93 90 91 91 84 93 85 87 91 95 95 88 80 66 70 72 72 72 76
65 64 66 68 76 75 78 83 79 80 81 89 88 83 75 86 83 83 82 80 76 77 92 91 87 89 92 91 88 95 93 93 91 92 90 79 80 74 70 70 67 75 79 83
72 72 72 82 91 84 80 81 82 86 89 91 79 77 83 85 83 79 84 79 80 82 88 88 90 91 96 92 92 92 91 88 87 79 76 76 74 72 74 70 80 77 79 74
79 73 80 82 75 83 81 81 85 93 94 91 80 86 81 79 84 81 85 84 85 93 87 87 90 91 94 91 91 90 86 76 77 69 70 75 73 76 70 77 78 67 67 64
Wind_Speed
5 9 4 1 2 4 7 5 2 3 6 13 9 13 7 6 11 9 7 7 7 7 6 5 6 6 7 7 7 6 6 6 5 3 4 2 4 3 4 7 6 11 12 13
8 4 3 6 6 6 5 5 4 4 13 14 8 10 6 6 4 4 6 7 8 7 9 6 7 6 7 6 7 8 8 7 9 7 6 4 5 4 3 7 10 14 15 13
6 1 3 3 6 7 2 7 1 3 6 9 9 5 2 3 2 4 5 5 6 7 10 11 10 7 6 8 9 10 10 10 10 11 8 7 5 7 7 10 9 13 14 14
5 3 4 5 5 1 1 2 3 3 6 5 2 3 2 3 5 8 12 13 11 15 15 14 16 10 8 8 8 8 9 11 11 12 11 11 9 9 9 8 9 10 12 15
1 3 4 6 2 2 4 2 1 3 2 3 3 5 4 3 6 12 14 16 16 16 16 18 17 10 6 8 8 7 7 11 12 12 12 10 12 10 9 9 13 12 11 13
1 3 4 2 3 2 3 4 6 5 3 2 2 4 3 2 6 7 11 12 13 15 15 16 12 7 6 7 8 7 9 10 10 14 17 18 18 16 13 14 12 9 9 10
6 3 6 4 3 5 10 7 4 4 4 5 1 4 3 7 8 9 8 9 11 13 15 17 16 8 5 5 8 10 11 12 13 17 17 17 15 13 14 14 10 13 10 10
3 3 5 7 3 1 4 4 5 3 2 4 3 4 3 5 6 5 5 6 8 11 14 16 19 15 8 11 14 13 13 15 17 17 17 13 13 9 10 12 10 9 10 11
2 3 5 3 3 2 1 4 3 6 2 1 2 4 3 5 8 6 8 9 12 16 18 20 20 16 7 8 10 11 13 16 17 14 13 13 14 15 12 14 13 10 12 11
2 4 2 5 2 4 3 3 3 4 1 4 4 4 4 5 8 9 11 13 15 16 16 16 16 13 8 8 8 11 15 15 14 13 12 11 14 15 14 13 14 14 13 14
2 3 5 2 5 0 6 3 6 4 4 3 3 5 3 2 4 7 9 12 12 13 12 16 15 13 10 11 12 12 13 14 12 12 12 12 13 12 14 13 13 14 14 15
0 4 2 0 5 1 2 3 3 5 2 0 2 6 5 2 3 5 8 10 10 11 13 15 16 15 15 12 10 10 11 12 11 12 12 13 13 13 12 12 15 14 15 15
4 1 2 5 4 2 6 2 4 5 3 6 4 5 4 1 4 6 10 11 12 14 18 16 14 13 12 8 10 11 11 11 11 11 13 11 11 11 13 13 14 15 15 15
5 2 5 7 3 1 2 2 1 4 3 3 6 3 3 9 12 13 12 11 14 15 15 17 14 14 13 12 11 10 12 11 11 11 11 10 10 8 10 12 14 14 13 14
4 2 2 4 4 2 4 7 6 8 5 6 3 3 0 5 7 8 8 13 15 18 19 17 17 12 12 12 10 12 11 10 9 9 9 10 11 11 11 12 12 12 13 13
2 1 3 5 3 3 5 11 9 5 4 7 4 3 3 3 3 7 9 14 16 17 18 17 18 16 12 11 11 11 11 11 11 11 11 11 12 11 11 11 11 12 13 13
4 5 3 5 4 7 7 4 5 4 1 4 4 2 2 4 8 7 8 13 12 13 11 12 13 11 10 11 10 11 10 9 10 10 10 11 11 11 11 11 12 12 11 11
6 5 2 3 5 2 5 3 2 4 3 4 4 2 2 3 4 2 7 7 8 10 8 11 10 10 11 10 10 10 11 10 9 10 11 11 11 11 11 11 11 11 9 9
2 5 2 3 3 8 1 1 4 3 4 7 6 3 2 3 2 2 7 6 7 7 8 9 9 10 9 9 10 9 9 9 10 10 10 11 11 11 10 11 11 9 8 9
5 4 5 4 3 6 3 4 3 3 5 8 5 2 2 1 2 2 6 5 7 8 8 9 8 7 6 8 8 9 9 9 9 9 10 10 9 10 10 10 10 9 8 10
3 1 5 3 3 9 5 4 3 3 5 6 6 4 5 4 4 2 6 8 6 7 9 7 7 8 8 6 6 9 7 8 7 8 9 9 9 10 10 9 9 10 10 10
7 7 4 3 1 10 5 3 6 4 3 5 5 5 4 3 2 3 8 8 6 8 7 6 5 5 5 5 5 5 6 5 6 7 7 7 8 9 9 11 10 11 11 11
3 7 7 10 7 1 1 0 2 3 5 4 5 4 3 3 3 8 8 7 6 7 5 3 3 4 6 6 5 4 4 5 5 5 5 5 5 8 10 10 11 10 11 10
3 4 3 2 3 4 3 2 3 3 4 5 4 4 2 3 6 9 8 6 6 6 5 3 4 5 6 6 7 4 5 4 5 5 6 7 8 8 8 7 8 9 10 10
5 3 4 2 1 3 6 6 6 5 5 4 4 3 6 7 8 8 7 6 7 5 4 3 4 4 5 5 6 6 6 5 5 6 7 7 7 8 8 7 8 8 9 12
6 7 6 7 7 5 4 10 7 7 5 5 5 5 5 7 8 8 7 7 7 5 3 4 4 5 5 5 6 6 6 7 6 7 6 6 6 7 7 7 7 14 15 19
Wind_Direction
10 72 91 43 82 92 100 97 81 34 179 66 63 76 48 37 59 51 40 35 21 12 332 3 359 350 356 2 8 1 342 355 1 343 349 327 343 331 334 344 336 353 340 345
38 76 167 87 63 86 67 105 349 100 101 89 87 76 66 36 48 55 37 19 9 357 348 345 342 354 2 342 347 346 353 4 13 5 353 334 327 338 352 341 358 348 346 348
108 135 101 98 41 60 44 110 269 128 66 112 113 56 41 85 87 19 25 358 8 358 350 344 344 339 337 2 2 3 2 357 13 6 2 3 359 359 359 356 350 347 343 340
73 3 74 61 78 54 102 125 175 211 139 205 137 227 261 142 35 26 17 12 359 0 355 347 348 338 6 359 357 0 6 11 9 6 9 10 2 352 351 350 348 345 346 343
230 26 47 57 47 334 219 37 292 173 116 99 2 94 260 67 39 31 18 15 9 2 360 352 348 350 23 2 348 349 353 17 11 11 15 12 2 351 344 354 351 349 351 346
15 307 58 334 86 53 306 76 47 49 91 50 313 113 343 36 50 35 20 15 13 8 8 8 3 11 5 358 359 354 3 15 9 15 16 13 7 357 354 358 354 349 353 342
352 6 329 35 10 0 36 42 354 6 12 219 196 45 219 72 64 59 20 4 358 357 356 351 350 340 328 346 360 1 3 15 12 15 12 10 9 357 357 358 353 354 351 347
61 333 8 334 79 273 39 111 138 270 247 274 301 202 160 100 72 49 19 346 338 346 345 345 344 337 337 10 14 10 6 13 12 11 8 15 12 5 4 1 358 355 354 348
39 287 324 55 332 78 112 56 176 106 0 18 234 77 182 51 35 13 351 348 349 353 350 347 340 341 17 24 15 11 12 9 10 16 12 12 9 11 7 7 9 2 357 353
149 331 357 295 357 30 83 149 53 14 248 268 282 231 212 12 357 356 354 352 355 349 350 358 357 357 16 9 10 14 18 10 11 15 20 12 11 13 8 11 11 4 357 359
102 104 291 25 20 331 355 34 54 113 131 205 290 263 145 102 340 340 345 348 345 340 360 345 344 351 2 11 12 13 18 11 14 14 16 8 7 18 16 16 13 5 358 0
53 130 288 318 287 26 89 119 105 119 230 121 151 270 124 124 333 347 344 343 343 354 349 355 350 345 343 350 25 15 13 18 19 21 15 16 11 7 9 12 14 12 6 2
184 43 20 340 4 24 72 31 90 95 87 209 145 267 187 353 313 359 355 347 350 356 360 352 342 343 340 357 26 19 18 20 21 22 22 18 6 10 19 16 14 16 7 5
82 119 172 200 202 157 242 203 157 148 156 209 234 307 242 344 356 355 352 352 358 0 346 344 349 346 2 35 26 22 25 25 20 20 17 2 2 3 16 17 16 16 8 7
105 215 195 250 233 228 236 244 220 202 199 186 204 270 187 318 343 338 345 2 0 358 355 356 349 353 31 30 28 25 24 20 14 14 9 5 12 15 31 31 23 13 9 7
29 232 30 303 55 351 258 248 227 200 223 251 210 251 145 268 334 6 8 6 3 6 14 11 23 41 34 32 31 24 22 19 19 11 11 11 15 16 19 18 24 20 11 8
123 130 99 261 359 314 294 256 205 156 160 153 209 123 18 321 4 1 13 7 18 13 7 15 30 28 26 30 28 28 23 12 20 13 10 12 12 16 21 18 18 15 10 4
131 108 97 264 14 353 246 329 193 144 151 142 106 125 195 287 290 46 30 27 12 10 15 30 25 23 22 24 25 28 25 21 14 13 14 13 13 19 13 15 13 6 1 3
93 123 91 133 219 292 321 197 142 158 258 176 174 179 176 287 15 167 41 41 36 22 25 30 28 26 19 26 29 25 23 19 21 17 16 19 19 17 13 13 3 356 358 5
71 64 117 78 138 240 234 151 129 125 274 182 173 184 174 37 7 233 25 58 51 30 41 36 23 27 32 27 28 39 28 26 23 18 21 19 21 19 14 6 2 354 5 11
130 82 167 135 238 285 228 150 129 120 242 169 164 175 185 200 197 252 114 85 67 58 41 36 28 32 32 27 37 46 27 22 13 21 24 20 11 26 13 2 6 6 8 12
162 152 193 141 177 280 145 85 177 183 80 157 166 176 182 221 247 132 104 90 67 61 45 50 54 25 21 32 48 50 28 1 15 24 21 11 13 18 17 13 9 14 13 15
206 187 180 185 212 251 310 217 86 136 141 168 144 155 201 240 226 147 114 104 89 86 71 40 26 28 21 7 23 33 338 4 6 14 358 350 4 28 21 20 19 17 16 14
233 167 217 100 208 207 182 88 148 135 125 129 138 156 187 223 160 119 114 109 95 86 66 39 39 32 28 12 35 21 13 12 27 16 5 18 13 29 30 26 25 20 18 15
204 127 187 250 279 29 262 223 169 125 117 136 173 142 139 122 127 131 124 121 105 103 84 56 55 48 18 15 28 7 10 14 21 30 24 18 18 22 19 27 22 28 19 24
185 186 172 224 194 160 228 176 154 142 170 182 162 145 121 129 131 131 120 116 122 115 101 74 55 59 9 31 34 8 18 27 25 30 24 20 21 21 22 15 13 21 28 27